This demonstration page uses our WeatherBlox Daily Observations layout. Learn more.

Left ArrowRight Arrow

39.51506, -84.39828

Hourly Observations for January 18, 2015

Temp ( °F °C ) Dew Point ( °F °C ) Humidity (%) Winds ( mph kmh ) Pressure ( in mb ) Visibility ( mi km ) Precip ( " mm )
12:15 am 00:15 Cloudy 49 9.6 26 -3.2 41 41 SW 16 26 29.83 1010 10 16 0.00 0.00
12:35 am 00:35 Cloudy 49 9.6 26 -3.4 40 40 SW 15 24 29.83 1010 10 16 0.00 0.00
12:55 am 00:55 Cloudy 50 9.8 26 -3.5 39 39 WSW 22 35 29.83 1010 10 16 0.00 0.00
1:15 am 01:15 Cloudy 49 9.6 27 -2.7 42 42 WSW 15 24 29.83 1010 10 16 0.00 0.00
1:35 am 01:35 Cloudy 49 9.6 29 -1.4 47 47 WSW 17 28 29.83 1010 10 16 0.00 0.00
1:55 am 01:55 Cloudy 49 9.6 32 0 52 52 WSW 16 26 29.83 1010 10 16 0.00 0.00
2:15 am 02:15 Cloudy 49 9.6 34 1.3 57 57 WSW 14 22 29.83 1010 10 16 0.00 0.00
2:35 am 02:35 Cloudy 48 8.9 35 1.8 61 61 WSW 12 19 29.83 1010 10 16 0.00 0.00
2:55 am 02:55 Cloudy with Light Snow 47 8.2 37 2.5 68 68 WSW 16 26 29.83 1010 7 11 0.00 0.00
3:15 am 03:15 Cloudy with Light Snow 43 6.2 36 2 75 75 W 16 26 29.85 1011 5 8 0.00 0.00
3:35 am 03:35 Cloudy with Light Snow 42 5.3 36 2.1 80 80 W 12 19 29.85 1011 5 8 0.00 0.00
3:55 am 03:55 Cloudy 40 4.7 35 1.8 82 82 W 6 9 29.85 1011 10 16 0.00 0.00
4:15 am 04:15 Cloudy 39 4 35 1.5 84 84 SSW 8 13 29.85 1011 10 16 0.00 0.00
4:35 am 04:35 Cloudy 39 4 35 1.6 85 85 SSW 8 13 29.85 1011 10 16 0.00 0.00
4:55 am 04:55 Cloudy 39 4 35 1.5 84 84 S 8 13 29.85 1011 10 16 0.00 0.00
5:15 am 05:15 Mostly Cloudy 39 4 35 1.5 84 84 SSW 5 7 29.83 1010 10 16 0.00 0.00
5:35 am 05:35 Mostly Cloudy 38 3.4 34 1 84 84 SW 5 7 29.83 1010 10 16 0.00 0.00
5:55 am 05:55 Partly Cloudy 37 2.6 33 0.5 86 86 SW 6 9 29.85 1011 10 16 0.00 0.00
6:15 am 06:15 Mostly Cloudy 37 2.6 33 0.5 86 86 SSW 5 7 29.85 1011 10 16 0.00 0.00
6:35 am 06:35 Cloudy 37 2.6 33 0.5 86 86 WSW 7 11 29.85 1011 10 16 0.00 0.00
6:55 am 06:55 Cloudy 39 4 35 1.8 86 86 WSW 12 19 29.85 1011 10 16 0.00 0.00
7:15 am 07:15 Cloudy 39 4 35 1.6 85 85 SSW 9 15 29.85 1011 10 16 0.00 0.00
7:35 am 07:35 Cloudy 39 4 35 1.7 85 85 SW 9 15 29.85 1011 10 16 0.00 0.00
7:55 am 07:55 Cloudy 39 4 35 1.7 85 85 SW 10 17 29.85 1011 10 16 0.00 0.00
8:15 am 08:15 Cloudy 39 4 35 1.7 85 85 SW 12 19 29.85 1011 10 16 0.00 0.00
8:35 am 08:35 Cloudy 39 4 35 1.7 85 85 SW 10 17 29.85 1011 10 16 0.00 0.00
8:55 am 08:55 Cloudy 39 4 35 1.7 85 85 SW 10 17 29.88 1012 10 16 0.00 0.00
9:15 am 09:15 Cloudy 39 4 35 1.6 85 85 SW 10 17 29.88 1012 10 16 0.00 0.00
9:35 am 09:35 Cloudy 40 4.6 35 1.6 81 81 WSW 12 19 29.88 1012 10 16 0.00 0.00
9:55 am 09:55 Cloudy 40 4.7 34 0.9 77 77 WSW 10 17 29.88 1012 10 16 0.00 0.00
10:15 am 10:15 Cloudy 40 4.7 33 0.6 75 75 WSW 13 20 29.88 1012 10 16 0.00 0.00
10:35 am 10:35 Cloudy 40 4.7 32 0 72 72 W 16 26 29.91 1013 10 16 0.00 0.00
10:55 am 10:55 Cloudy 40 4.7 31 -0.4 70 70 W 16 26 29.91 1013 10 16 0.00 0.00
11:15 am 11:15 Cloudy 40 4.7 32 -0.2 71 71 W 12 19 29.91 1013 10 16 0.00 0.00
11:35 am 11:35 Cloudy 40 4.7 32 0.1 72 72 WSW 10 17 29.91 1013 10 16 0.00 0.00
11:55 am 11:55 Cloudy 40 4.7 32 0 72 72 WSW 16 26 29.91 1013 10 16 0.00 0.00
12:15 pm 12:15 Cloudy 40 4.7 32 -0.1 71 71 WSW 12 19 29.88 1012 10 16 0.00 0.00
12:35 pm 12:35 Cloudy 40 4.6 32 0 72 72 W 8 13 29.88 1012 10 16 0.00 0.00
12:55 pm 12:55 Cloudy 40 4.6 32 0 72 72 W 12 19 29.88 1012 10 16 0.00 0.00
1:15 pm 13:15 Cloudy 40 4.7 32 0 72 72 WSW 8 13 29.88 1012 10 16 0.00 0.00
1:35 pm 13:35 Cloudy 42 5.5 32 -0.1 68 68 W 15 24 29.88 1012 10 16 0.00 0.00
1:55 pm 13:55 Cloudy 42 5.5 31 -0.4 66 66 W 14 22 29.88 1012 10 16 0.00 0.00
2:15 pm 14:15 Cloudy 42 5.5 31 -0.6 65 65 W 13 20 29.88 1012 10 16 0.00 0.00
2:35 pm 14:35 Cloudy 43 6 31 -0.8 62 62 W 14 22 29.88 1012 10 16 0.00 0.00
2:55 pm 14:55 Cloudy 43 6 31 -0.8 62 62 W 14 22 29.88 1012 10 16 0.00 0.00
3:15 pm 15:15 Cloudy 43 5.9 31 -0.8 62 62 WSW 12 19 29.91 1013 10 16 0.00 0.00
3:35 pm 15:35 Cloudy 43 6.1 31 -0.7 62 62 W 8 13 29.91 1013 10 16 0.00 0.00
3:55 pm 15:55 Cloudy 43 6.2 30 -1.3 59 59 W 10 17 29.91 1013 10 16 0.00 0.00
4:15 pm 16:15 Cloudy 43 6.1 30 -1 61 61 W 8 13 29.91 1013 10 16 0.00 0.00
4:35 pm 16:35 Cloudy 43 6.2 30 -1.2 59 59 W 7 11 29.91 1013 10 16 0.00 0.00
4:55 pm 16:55 Cloudy 43 6.1 30 -1.1 60 60 W 7 11 29.91 1013 10 16 0.00 0.00
5:15 pm 17:15 Cloudy 42 5.8 30 -1.1 62 62 W 5 7 29.94 1014 10 16 0.00 0.00
5:35 pm 17:35 Cloudy 42 5.6 30 -1.1 62 62 W 6 9 29.94 1014 10 16 0.00 0.00
5:55 pm 17:55 Cloudy 42 5.5 30 -1.1 63 63 W 3 6 29.94 1014 10 16 0.00 0.00
6:15 pm 18:15 Cloudy 42 5.5 30 -1.3 62 62 W 3 6 29.94 1014 10 16 0.00 0.00
6:35 pm 18:35 Cloudy 42 5.5 30 -1 63 63 W 3 6 29.97 1015 10 16 0.00 0.00
6:55 pm 18:55 Cloudy 42 5.5 30 -0.9 64 64 W 5 7 29.97 1015 10 16 0.00 0.00
7:15 pm 19:15 Cloudy 41 5.2 31 -0.8 66 66 W 3 6 29.97 1015 10 16 0.00 0.00
7:35 pm 19:35 Cloudy 41 4.8 30 -1.1 66 66 WNW 3 6 29.97 1015 10 16 0.00 0.00
7:55 pm 19:55 Cloudy 40 4.7 30 -0.9 67 67 WNW 6 9 30.00 1016 10 16 0.00 0.00
8:15 pm 20:15 Cloudy 40 4.7 30 -1.2 66 66 WNW 8 13 30.00 1016 10 16 0.00 0.00
8:35 pm 20:35 Cloudy 40 4.7 30 -1.1 66 66 NW 8 13 30.00 1016 10 16 0.00 0.00
8:55 pm 20:55 Cloudy 40 4.7 30 -1.2 66 66 WNW 6 9 30.00 1016 10 16 0.00 0.00
9:15 pm 21:15 Cloudy 39 4 29 -1.4 68 68 WNW 5 7 30.00 1016 10 16 0.00 0.00
9:35 pm 21:35 Cloudy 39 4 30 -1.2 69 69 WNW 3 6 30.00 1016 10 16 0.00 0.00
9:55 pm 21:55 Cloudy 39 4 30 -1.2 69 69 Calm 30.00 1016 10 16 0.00 0.00
10:15 pm 22:15 Mostly Cloudy 39 4 30 -1.1 70 70 Calm 30.03 1017 10 16 0.00 0.00
10:35 pm 22:35 Mostly Cloudy 37 3 29 -1.5 73 73 WNW 3 6 30.06 1018 10 16 0.00 0.00
10:55 pm 22:55 Cloudy 37 2.9 29 -1.5 73 73 Calm 30.06 1018 10 16 0.00 0.00
11:15 pm 23:15 Cloudy 37 2.6 30 -1 77 77 W 3 6 30.06 1018 10 16 0.00 0.00
11:35 pm 23:35 Partly Cloudy 34 1.3 29 -1.4 82 82 WSW 3 6 30.06 1018 10 16 0.00 0.00
11:55 pm 23:55 Clear 34 1.2 29 -1.4 83 83 WSW 3 6 30.06 1018 10 16 0.00 0.00

Powered by AerisWeather